Estación meteorológica de Els Cortals - St. Hilari Sacalm (La Selva, Guilleries)

Consulta los datos en tiempo real de la estación meteorológica de Els Cortals - St. Hilari Sacalm





Hora UTC 19:10
Temperatura 9.7 ºC
Humedad 75.0 %
Presión 1007.7 hPa
Pluja 0.0 mm
Velocidad viento 0.0 km/h
Dirección viento SE

Datos diarios 2026-05-07



Hora UTC (invierno +1h; verano +2h)
Temperatura (ºC) Humedad (%) Presión (hPa) Velocidad viento (km/h) Precipitación (mm)
Hora UTC Aire Humedad Presión Vel. Dir. Vel. Max Dir. Intent. máx 5 min.
00:05 8.1 69.0 1008.5 0.0 NNE 0.0 0.0
00:10 8.0 69.0 1008.5 1.6 NNE 1.6 0.0
00:15 7.9 69.0 1008.4 0.0 NNE 1.6 0.0
00:20 7.8 69.0 1008.2 0.0 NNE 1.6 0.0
00:25 7.7 70.0 1008.1 0.0 NNE 1.6 0.0
00:30 7.7 70.0 1008.2 0.0 NNE 0.0 0.0
00:35 7.7 69.0 1008.2 0.0 NNE 0.0 0.0
00:40 7.7 70.0 1008.2 0.0 NNE 0.0 0.0
00:45 7.7 70.0 1008.2 0.0 NNE 0.0 0.0
00:50 7.7 70.0 1008.1 0.0 NNE 0.0 0.0
00:55 7.7 70.0 1008.1 0.0 NNE 0.0 0.0
01:00 7.4 70.0 1008.2 0.0 NNE 0.0 0.0
01:05 7.2 70.0 1008.0 0.0 NNE 0.0 0.0
01:10 7.1 70.0 1007.7 0.0 NNE 0.0 0.0
01:15 7.0 70.0 1007.8 0.0 NNE 0.0 0.0
01:20 6.9 70.0 1007.9 0.0 NNE 0.0 0.0
01:25 6.8 70.0 1007.8 0.0 NNE 0.0 0.0
01:30 6.7 70.0 1007.9 0.0 NNE 0.0 0.0
01:35 6.7 70.0 1007.8 0.0 NNE 0.0 0.0
01:40 6.7 70.0 1007.8 0.0 NNE 0.0 0.0
01:45 6.8 70.0 1007.8 0.0 NNE 0.0 0.0
01:50 6.8 71.0 1007.7 0.0 NNE 0.0 0.0
01:55 6.7 71.0 1007.8 0.0 NNE 0.0 0.0
02:00 6.7 71.0 1007.8 0.0 NNE 0.0 0.0
02:05 6.7 71.0 1007.7 0.0 NNE 0.0 0.0
02:10 6.7 72.0 1007.7 0.0 NNE 0.0 0.0
02:15 6.5 72.0 1007.7 0.0 NNE 0.0 0.0
02:20 6.5 73.0 1007.7 0.0 NNE 0.0 0.0
02:25 6.6 73.0 1007.7 0.0 NNE 0.0 0.0
02:30 6.4 73.0 1007.7 0.0 NNE 0.0 0.0
02:35 6.4 73.0 1007.6 0.0 NNE 0.0 0.0
02:40 6.4 73.0 1007.6 0.0 NNE 0.0 0.0
02:45 6.3 74.0 1007.6 0.0 NNE 0.0 0.0
02:50 6.1 74.0 1007.5 0.0 NNE 0.0 0.0
02:55 6.3 74.0 1007.6 0.0 NNE 0.0 0.0
03:00 6.3 74.0 1007.4 0.0 NNE 0.0 0.0
03:05 5.9 75.0 1007.5 0.0 NNE 0.0 0.0
03:10 6.1 74.0 1007.6 0.0 NNE 0.0 0.0
03:15 6.3 73.0 1007.6 0.0 NNE 0.0 0.0
03:20 6.3 74.0 1007.4 0.0 NNE 0.0 0.0
03:25 6.3 73.0 1007.4 0.0 NNE 0.0 0.0
03:30 6.3 73.0 1007.4 0.0 NNE 0.0 0.0
03:35 6.1 74.0 1007.5 0.0 NNE 0.0 0.0
03:40 6.2 74.0 1007.4 0.0 NNE 0.0 0.0
03:45 6.4 73.0 1007.3 0.0 NNE 0.0 0.0
03:50 6.5 76.0 1007.3 0.0 NNE 0.0 0.0
03:55 6.3 73.0 1007.3 0.0 NNE 0.0 0.0
04:00 6.4 73.0 1007.4 0.0 NNE 0.0 0.0
04:05 6.3 73.0 1007.5 0.0 NNE 0.0 0.0
04:10 6.6 73.0 1007.5 0.0 NNE 0.0 0.0
04:15 6.8 72.0 1007.5 0.0 NNE 0.0 0.0
04:20 6.9 72.0 1007.4 0.0 NNE 0.0 0.0
04:25 7.0 72.0 1007.3 0.0 E 0.0 0.0
04:30 6.9 73.0 1007.3 3.2 SE 4.8 0.0
04:35 6.7 73.0 1007.2 3.2 SE 6.4 0.0
04:40 6.7 73.0 1007.3 0.0 SE 3.2 0.0
04:45 6.9 73.0 1007.3 0.0 SE 3.2 0.0
04:50 7.1 73.0 1007.3 0.0 SE 0.0 0.0
04:55 6.9 73.0 1007.3 0.0 SE 0.0 0.0
05:00 7.2 73.0 1007.4 0.0 SE 0.0 0.0
05:05 7.2 73.0 1007.5 0.0 SE 0.0 0.0
05:10 7.1 73.0 1007.6 0.0 ESE 0.0 0.0
05:15 7.2 73.0 1007.6 0.0 ESE 0.0 0.0
05:20 7.2 73.0 1007.6 0.0 ESE 0.0 0.0
05:25 7.3 73.0 1007.6 0.0 SE 0.0 0.0
05:30 7.5 73.0 1007.6 0.0 SE 0.0 0.0
05:35 7.9 71.0 1007.8 0.0 SE 0.0 0.0
05:40 8.3 71.0 1007.8 0.0 SE 0.0 0.0
05:45 8.8 71.0 1007.8 0.0 SE 0.0 0.0
05:50 9.3 72.0 1007.9 0.0 SE 0.0 0.0
05:55 9.7 75.0 1007.9 0.0 SE 0.0 0.0
06:00 10.0 79.0 1008.1 0.0 SE 0.0 0.0
06:05 10.3 81.0 1008.0 0.0 SE 1.6 0.0
06:10 10.3 82.0 1008.2 0.0 SE 3.2 0.0
06:15 10.3 82.0 1008.2 0.0 SE 6.4 0.0
06:20 10.4 82.0 1008.1 1.6 SE 8.0 0.0
06:25 10.6 82.0 1008.0 0.0 SE 8.0 0.0
06:30 10.7 82.0 1008.1 1.6 SE 4.8 0.0
06:35 10.7 82.0 1008.2 0.0 ESE 6.4 0.0
06:40 10.8 82.0 1008.2 0.0 ESE 6.4 0.0
06:45 10.9 82.0 1008.2 3.2 ESE 8.0 0.0
06:50 10.8 82.0 1008.2 3.2 ESE 8.0 0.0
06:55 10.8 82.0 1008.3 1.6 ESE 8.0 0.0
07:00 10.9 82.0 1008.3 1.6 NE 8.0 0.0
07:05 11.1 83.0 1007.9 1.6 SSE 8.0 0.0
07:10 11.3 83.0 1008.2 4.8 SSE 8.0 0.0
07:15 11.3 82.0 1008.4 0.0 ESE 8.0 0.0
07:20 11.3 82.0 1008.4 6.4 SE 9.7 0.0
07:25 11.3 83.0 1008.4 0.0 NNE 9.7 0.0
07:30 11.5 83.0 1008.2 0.0 NE 6.4 0.0
07:35 11.6 83.0 1008.2 3.2 S 8.0 0.0
07:40 11.5 83.0 1008.4 1.6 NE 11.3 0.0
07:45 11.0 83.0 1008.4 8.0 E 11.3 0.0
07:50 10.8 82.0 1008.4 3.2 E 11.3 0.0
07:55 11.0 82.0 1008.4 8.0 E 9.7 0.0
08:00 11.1 82.0 1008.4 6.4 E 9.7 0.0
08:05 11.3 82.0 1008.2 8.0 ESE 11.3 0.0
08:10 11.3 82.0 1008.2 4.8 E 11.3 0.0
08:15 11.3 82.0 1008.4 3.2 ESE 11.3 0.0
08:20 11.2 82.0 1008.5 3.2 E 9.7 0.0
08:25 10.9 82.0 1008.5 1.6 NE 9.7 0.0
08:30 10.7 82.0 1008.2 3.2 E 8.0 0.0
08:35 11.1 80.0 1008.1 6.4 SE 11.3 0.0
08:40 11.5 81.0 1008.1 8.0 ESE 12.9 0.0
08:45 11.9 82.0 1008.2 4.8 ESE 12.9 0.0
08:50 11.7 83.0 1008.3 3.2 ESE 8.0 0.0
08:55 11.6 83.0 1008.3 8.0 E 8.0 0.0
09:00 11.5 83.0 1008.1 3.2 SE 9.7 0.0
09:05 11.4 82.0 1008.2 1.6 E 9.7 0.0
09:10 11.6 81.0 1008.3 1.6 E 9.7 0.0
09:15 11.7 82.0 1008.3 6.4 E 9.7 0.0
09:20 11.6 82.0 1008.2 1.6 ENE 11.3 0.0
09:25 11.6 81.0 1008.4 3.2 E 11.3 0.0
09:30 11.6 82.0 1008.4 1.6 E 9.7 0.0
09:35 11.6 81.0 1008.5 1.6 SE 9.7 0.0
09:40 11.9 81.0 1008.4 11.3 ESE 12.9 0.0
09:45 12.2 82.0 1008.5 1.6 E 12.9 0.0
09:50 12.3 83.0 1008.6 12.9 ENE 16.1 0.0
09:55 12.2 83.0 1008.6 6.4 E 16.1 0.0
10:00 12.2 83.0 1008.5 9.7 E 16.1 0.0
10:05 12.4 83.0 1008.4 4.8 ENE 16.1 0.0
10:10 12.4 83.0 1008.5 3.2 E 16.1 0.0
10:15 12.2 82.0 1008.4 0.0 ESE 11.3 0.0
10:20 12.2 83.0 1008.4 6.4 NE 12.9 0.0
10:25 12.2 83.0 1008.3 6.4 E 14.5 0.0
10:30 12.2 83.0 1008.4 6.4 ENE 14.5 0.0
10:35 12.2 83.0 1008.4 8.0 E 11.3 0.0
10:40 12.1 83.0 1008.5 8.0 ENE 12.9 0.0
10:45 12.1 83.0 1008.4 4.8 ESE 12.9 0.0
10:50 12.2 83.0 1008.4 4.8 ESE 11.3 0.0
10:55 12.7 83.0 1008.2 3.2 ENE 11.3 0.0
11:00 12.8 83.0 1008.3 6.4 E 12.9 0.0
11:05 12.8 83.0 1008.3 3.2 SE 12.9 0.0
11:10 12.9 82.0 1008.1 8.0 E 12.9 0.0
11:15 13.1 82.0 1008.1 6.4 NE 12.9 0.0
11:20 13.2 82.0 1008.1 3.2 E 16.1 0.0
11:25 13.3 83.0 1008.1 8.0 E 16.1 0.0
11:30 13.4 82.0 1008.0 6.4 E 14.5 0.0
11:35 13.4 82.0 1008.1 9.7 ESE 16.1 0.0
11:40 13.4 82.0 1007.9 11.3 ENE 17.7 0.0
11:45 13.5 82.0 1007.8 8.0 ESE 14.5 0.0
11:50 13.5 82.0 1007.8 6.4 SE 16.1 0.0
11:55 13.3 82.0 1007.8 4.8 E 16.1 0.0
12:00 13.1 83.0 1007.8 8.0 E 14.5 0.0
12:05 12.9 83.0 1007.8 1.6 ESE 12.9 0.0
12:10 12.8 82.0 1007.8 1.6 SSE 12.9 0.0
12:15 12.7 82.0 1008.0 6.4 E 14.5 0.0
12:20 12.5 83.0 1008.0 3.2 SSE 17.7 0.0
12:25 12.3 83.0 1008.0 3.2 SE 14.5 0.0
12:30 12.4 83.0 1007.9 8.0 E 12.9 0.0
12:35 12.6 83.0 1008.0 3.2 SSE 16.1 0.0
12:40 12.3 83.0 1008.0 11.3 E 16.1 0.0
12:45 12.3 83.0 1008.2 4.8 ESE 19.3 0.0
12:50 11.9 83.0 1008.0 1.6 SE 17.7 0.0
12:55 11.8 83.0 1007.9 8.0 ESE 17.7 0.0
13:00 11.9 83.0 1007.8 11.3 S 17.7 0.0
13:05 11.9 83.0 1007.9 6.4 NE 17.7 0.0
13:10 12.1 82.0 1007.8 14.5 ENE 17.7 0.0
13:15 12.1 83.0 1007.6 14.5 E 17.7 0.0
13:20 12.1 82.0 1007.6 9.7 SE 19.3 0.0
13:25 12.0 83.0 1007.6 9.7 ENE 19.3 0.0
13:30 12.3 83.0 1007.6 6.4 E 14.5 0.0
13:35 12.3 83.0 1007.5 8.0 E 16.1 0.0
13:40 12.3 82.0 1007.5 8.0 E 16.1 0.0
13:45 12.3 82.0 1007.5 11.3 ENE 16.1 0.0
13:50 12.4 82.0 1007.4 11.3 ENE 17.7 0.0
13:55 12.6 82.0 1007.3 11.3 E 17.7 0.0
14:00 12.7 82.0 1007.2 6.4 E 17.7 0.0
14:05 12.8 82.0 1007.1 8.0 SE 14.5 0.0
14:10 12.8 81.0 1007.1 9.7 ENE 16.1 0.0
14:15 12.7 82.0 1007.0 9.7 SE 16.1 0.0
14:20 12.7 82.0 1006.9 11.3 E 12.9 0.0
14:25 12.7 82.0 1006.8 8.0 E 14.5 0.0
14:30 12.7 82.0 1006.8 8.0 E 14.5 0.0
14:35 12.7 82.0 1006.7 1.6 ESE 16.1 0.0
14:40 12.7 82.0 1006.7 6.4 E 16.1 0.0
14:45 12.8 82.0 1006.8 8.0 E 16.1 0.0
14:50 12.7 82.0 1006.6 6.4 S 16.1 0.0
14:55 12.6 82.0 1006.6 8.0 ENE 12.9 0.0
15:00 12.6 82.0 1006.8 9.7 NE 14.5 0.0
15:05 12.7 82.0 1006.8 8.0 ENE 14.5 0.0
15:10 12.8 82.0 1006.6 3.2 NNE 14.5 0.0
15:15 12.7 82.0 1006.7 8.0 ENE 14.5 0.0
15:20 12.6 82.0 1006.7 6.4 E 14.5 0.0
15:25 12.6 82.0 1006.7 1.6 ENE 14.5 0.0
15:30 12.7 82.0 1006.9 1.6 ESE 12.9 0.0
15:35 12.9 82.0 1006.7 9.7 ESE 14.5 0.0
15:40 13.1 82.0 1006.9 6.4 ENE 14.5 0.0
15:45 13.0 82.0 1006.9 6.4 SE 12.9 0.0
15:50 13.0 82.0 1006.8 6.4 ENE 14.5 0.0
15:55 12.8 82.0 1006.8 9.7 E 14.5 0.0
16:00 12.3 83.0 1006.8 8.0 E 16.1 0.0
16:05 11.9 83.0 1006.8 1.6 ESE 17.7 0.0
16:10 11.7 83.0 1007.0 3.2 E 17.7 0.0
16:15 11.7 83.0 1006.9 6.4 SE 16.1 0.0
16:20 11.8 83.0 1007.0 3.2 ESE 16.1 0.0
16:25 11.8 83.0 1007.0 6.4 E 14.5 0.0
16:30 11.7 83.0 1007.1 6.4 ESE 14.5 0.0
16:35 11.7 83.0 1007.1 4.8 E 14.5 0.0
16:40 11.6 83.0 1007.1 3.2 ESE 11.3 0.0
16:45 11.4 83.0 1007.0 1.6 SSE 11.3 0.0
16:50 11.4 82.0 1006.9 6.4 SE 11.3 0.0
16:55 11.5 82.0 1006.9 6.4 SE 9.7 0.0
17:00 11.4 82.0 1007.0 8.0 E 11.3 0.0
17:05 11.3 82.0 1007.0 1.6 E 11.3 0.0
17:10 11.3 82.0 1007.0 3.2 E 9.7 0.0
17:15 11.2 81.0 1006.8 3.2 E 9.7 0.0
17:20 11.2 81.0 1006.8 1.6 ESE 9.7 0.0
17:25 11.2 81.0 1006.7 3.2 ESE 11.3 0.0
17:30 11.1 80.0 1006.7 6.4 ESE 11.3 0.0
17:35 11.0 80.0 1006.9 4.8 E 14.5 0.0
17:40 11.1 79.0 1007.1 3.2 ESE 14.5 0.0
17:45 11.0 79.0 1007.1 3.2 E 11.3 0.0
17:50 10.8 78.0 1007.0 6.4 ESE 12.9 0.0
17:55 10.7 78.0 1007.0 0.0 SE 12.9 0.0
18:00 10.7 77.0 1007.0 0.0 SE 9.7 0.0
18:05 10.6 76.0 1007.2 0.0 SE 6.4 0.0
18:10 10.6 76.0 1007.2 0.0 SE 6.4 0.0
18:15 10.5 76.0 1007.3 0.0 SE 0.0 0.0
18:20 10.4 75.0 1007.3 0.0 SE 0.0 0.0
18:25 10.3 75.0 1007.4 0.0 SE 0.0 0.0
18:30 10.3 75.0 1007.3 0.0 SE 0.0 0.0
18:35 10.2 74.0 1007.3 0.0 SE 0.0 0.0
18:40 10.2 74.0 1007.6 0.0 SE 0.0 0.0
18:45 10.1 74.0 1007.6 0.0 SE 0.0 0.0
18:50 10.1 74.0 1007.8 0.0 SE 0.0 0.0
18:55 10.0 74.0 1007.9 0.0 SE 0.0 0.0
19:00 9.9 75.0 1007.8 0.0 SE 0.0 0.0
19:05 9.8 75.0 1007.9 0.0 SE 0.0 0.0
19:10 9.7 75.0 1007.7 0.0 SE 0.0 0.0
Máxima 13.5 83.0 1008.6 14.5 E 19.3 0.0
Mínima 5.9 69.0 1006.6
Total 0.0